Cloud_Cover
100 49 25 5 17 48 49 65 45 58 6 0 0 46 35 1 23 67 96 37 33 94 55 67 100 100 100 100 100 97 100 100 100 100 100 100 100 99 100 96 81 30 70 8 58 7 51 61 60
21 63 5 7 58 100 56 1 73 0 0 0 1 14 40 78 19 52 40 14 48 100 46 82 100 100 87 94 92 100 100 100 100 100 100 100 100 25 99 94 100 100 99 56 9 18 69 71 100
96 5 8 46 100 100 72 0 0 0 0 0 1 14 25 42 24 90 25 48 100 94 67 62 100 100 91 96 37 100 100 100 100 100 100 100 98 100 100 100 100 46 93 5 21 31 100 51 100
100 12 28 98 100 18 70 0 0 0 0 0 2 8 0 6 36 22 6 82 96 100 92 96 100 100 91 92 76 100 100 100 100 100 100 100 100 100 100 100 100 99 5 5 5 100 46 17 100
55 24 80 78 87 68 36 4 2 0 0 0 0 0 0 0 0 7 20 98 50 100 85 100 100 100 100 100 100 100 100 100 99 90 100 100 98 100 100 100 97 19 5 8 100 91 6 33 100
5 78 100 99 100 97 74 4 1 0 0 0 0 0 0 0 5 53 81 79 100 100 89 50 100 100 100 95 94 100 100 98 88 80 100 100 100 99 100 100 92 5 5 92 100 74 89 70 93
5 15 92 91 100 50 95 5 5 0 0 0 0 0 0 0 0 19 97 83 99 89 100 94 68 100 100 100 97 100 100 100 100 100 100 100 100 34 95 71 77 12 15 87 78 99 84 32 100
5 4 36 84 100 100 61 82 5 1 0 2 1 1 1 0 0 0 57 98 100 100 88 98 92 95 83 73 82 100 100 100 100 100 100 100 93 5 6 89 13 5 62 30 95 75 68 100 100
5 23 61 88 99 73 83 100 14 4 1 4 0 4 5 3 2 0 0 20 49 67 31 48 100 100 95 100 100 100 100 100 100 100 100 100 48 5 5 40 5 5 5 5 84 100 100 100 100
7 5 96 100 35 68 90 80 88 17 5 0 0 0 3 0 5 3 0 1 5 34 100 100 82 100 100 100 100 100 100 100 100 100 100 96 18 5 5 14 5 25 13 20 76 100 64 100 70
16 29 100 100 98 77 77 91 99 90 91 57 19 0 4 1 4 5 2 0 5 5 25 100 100 100 100 100 100 100 100 100 100 100 100 96 52 5 7 48 6 5 5 10 62 65 44 70 62
18 3 41 100 100 100 49 78 97 100 100 56 3 0 4 5 0 5 5 3 1 5 5 31 64 66 100 100 100 100 100 100 100 100 100 99 5 5 30 13 14 5 5 9 49 65 74 38 38
5 0 1 91 100 76 100 100 100 52 96 98 7 4 2 5 0 6 10 5 1 4 2 19 93 77 69 98 68 100 100 100 100 100 97 5 4 12 19 31 14 5 4 9 47 85 99 44 86
12 4 0 1 100 100 100 100 100 100 96 51 100 14 5 5 2 4 0 1 1 4 4 1 1 32 39 31 100 96 39 76 79 83 30 12 35 20 5 16 27 12 34 28 27 85 84 82 83
5 5 0 0 31 100 92 88 100 100 51 98 12 6 5 5 5 5 5 2 1 5 5 0 0 12 12 4 98 100 100 89 5 64 6 5 7 0 4 4 37 11 5 10 45 100 14 58 35
22 26 36 4 4 0 6 100 100 100 99 100 100 52 27 6 5 79 5 5 1 4 5 5 2 4 5 10 37 8 48 100 100 100 99 61 50 0 5 9 26 10 5 40 98 18 8 12 34
3 98 70 5 5 3 2 12 95 35 100 76 100 9 5 5 6 12 22 22 13 1 17 4 5 5 5 5 24 43 5 26 100 100 37 5 7 5 4 5 31 5 4 41 67 6 5 55 31
93 76 30 75 5 5 5 4 53 17 91 98 88 79 19 29 8 15 100 88 100 3 36 17 4 5 5 5 5 5 11 5 7 52 6 5 5 17 7 7 1 2 0 4 7 4 3 6 56
5 100 100 61 5 0 0 5 4 94 2 61 81 76 100 95 12 39 97 100 100 46 8 100 2 2 4 0 2 5 0 5 5 5 64 22 10 0 5 3 0 0 0 1 5 1 0 5 35
1 16 98 7 5 0 0 0 0 66 5 4 100 42 37 70 50 64 80 83 100 100 5 91 45 0 0 0 3 5 5 8 24 24 47 16 5 3 0 0 0 0 0 0 5 4 4 0 17
1 7 90 37 0 0 0 10 0 10 35 6 100 100 96 88 23 99 26 77 100 100 61 40 98 1 0 0 2 4 2 5 54 14 5 5 5 2 3 3 0 3 0 2 6 5 3 3 5
0 4 15 6 0 6 6 100 3 0 22 3 32 42 99 98 59 100 29 52 100 100 100 60 100 56 0 0 5 5 5 5 100 100 48 16 5 5 5 5 0 3 0 6 53 5 0 5 8
0 4 5 4 0 4 53 45 100 1 5 82 5 62 100 100 73 96 100 100 100 100 100 100 100 100 1 0 4 28 100 7 62 34 23 5 5 5 5 0 0 0 0 6 7 5 0 3 5
0 0 3 1 5 9 93 85 100 35 5 5 46 98 100 100 100 94 100 97 100 63 100 100 100 100 35 0 1 5 5 27 39 4 5 91 15 1 1 11 0 0 0 1 27 5 1 0 4
0 0 35 54 97 40 73 11 98 11 5 2 4 32 49 100 100 100 100 100 100 100 99 54 100 100 100 0 0 1 5 5 5 25 3 27 85 65 64 1 0 0 0 0 2 2 0 0 4
0 0 82 100 100 100 12 4 49 0 5 0 5 5 1 1 94 100 100 100 100 100 100 88 100 100 70 1 0 0 0 4 5 100 8 12 6 99 62 17 0 0 0 2 4 3 2 5 5
0 0 79 99 47 89 99 4 0 0 5 4 0 0 1 4 0 0 48 100 86 100 100 100 100 100 83 85 0 0 0 0 6 79 5 5 3 26 5 24 1 0 0 0 5 5 8 96 74
0 0 3 5 30 28 12 4 5 1 5 6 5 5 5 4 0 4 4 2 7 90 100 100 100 100 98 51 31 0 0 0 0 3 5 5 7 2 0 0 0 0 0 2 4 4 60 68 76
1 0 1 16 47 5 6 5 4 5 0 5 5 5 4 5 0 0 0 0 2 2 78 100 100 98 100 100 100 22 0 0 0 0 0 1 0 0 0 0 0 0 3 6 2 3 18 18 16
5 3 5 5 5 2 2 85 0 0 3 4 0 0 0 0 0 0 0 0 0 0 0 16 99 100 100 100 56 100 6 0 0 0 0 0 0 0 0 0 0 0 0 4 19 5 5 10 18